THOR ABLESTAR DEB, 416

Orbit data source: Space-Track

THOR ABLESTAR DEB, 416 is space debris in LEO originally from a launch on Thu, 29 Jun 1961 UTC launched from the Air Force Eastern Test Range (AFETR). Debris objects in space refer to the collection of defunct objects orbiting the Earth. Examples of debris include non-operational satellites, rocket bodies, and fragments generated from explosions, collisions, or faulty payload assembly.

Loading next visibility...
Identifier
416, 1961-015ER
Orbit
LEO
Country
Flag of USUS
Related business
Manufacturer
Unknown
Mission
Spacecraft
Bus & Motor
Unknown
Mass
Unknown
Launch date (UTC)
1961-06-29 (64 years ago)
Launch vehicle
Unknown
Launch site
Air Force Eastern Test Range (AFETR)
Object type
Payload
Rocket body
Debris
Shape & HBR
Unknown shape, 0.1 m
Radar Cross Section
Small (<0.1 m²)

Expand to show TLE details & history
Last TLE update: 7 hours ago

TLE from 7 hours ago
0 THOR ABLESTAR DEB
1 00416U 61015ER  25299.90335783  .00000498  00000-0  29320-3 0  9999
2 00416  66.4994 155.9231 0082849 320.6353  38.8732 14.14498712298854
Epoch: 2025-10-26T21:40Z
TLE epoch observation values (Epoch: 2025-10-26T21:40:50.116Z)
Latitude
0.00003°
Longitude
155.20142°
Altitude
799.703 km
Speed
7.478 km/s
True Right ascension
10h 23m 41s
True Declination
0° 00' 00"
Sunlit
Object was in daylight at epoch
Visualization orbit readout
Latitude
Unknown
Longitude
Unknown
Altitude
Unknown
Speed
Unknown
Apparent Right ascension
Unknown
Apparent Declination
Unknown
Sunlit
N/A
Visualization observer readout
Local Sidereal Time
00:09:03
Azimuth
Unknown
Elevation
Unknown
Doppler factor
Unknown
Orbital elements
Apogee altitude
902.25 km
Perigee altitude
782.606 km
Semi-major axis
7,220.565 km
Eccentricity
0.00828
Inclination
66.4994°
RAAN
155.9231°
Arg. of periapsis
320.6353°
True anomaly
39.47386°
Mean anomaly
38.8732°
Eccentric anomaly
39.17304°
Mean motion
3.53742 °/min
Orbital period
101.77 mins
BSTAR
0.0002932
Loading maneuver chart data...
Computing Atmospheric mass density...

Documentation

Showing up to 5 results
|